Grand Canyon, AZ

4:15 AM MST on May 25, 2017 (GMT -0700)
Grand Canyon National Park

Weather History for KGCN - January, 2013

Change the Weather History Date:

Thursday, January 10, 2013

  Actual Average Record
Temperature  
Mean Temperature 29 °F -  
Max Temperature 39 °F 42 °F 60 °F (1990)
Min Temperature 19 °F 15 °F -3 °F (1977)
Degree Days  
Heating Degree Days 36    
Moisture  
Dew Point 19 °F    
Average Humidity 70    
Maximum Humidity 93    
Minimum Humidity 42    
Precipitation  
Precipitation 0.00 in - - ()
Sea Level Pressure  
Sea Level Pressure 29.73 in    
Wind  
Wind Speed 11 mph (SW)    
Max Wind Speed 29 mph    
Max Gust Speed 38 mph    
Visibility 6 miles    
Events Fog , Snow    
Averages and records for this station are not official NWS values.
T = Trace of Precipitation, MM = Missing Value Source: NWS Daily Summary

Daily Weather History Graph

Daily Weather History Graph

Search for Another Location

Airport or City:

Trip Planner

Search our weather history database for the weather conditions in past years. The results will help you decide how hot, cold, wet, or windy it might be!

Date:

Astronomy

Jan. 10, 2013 Rise Set
Actual Time 7:39 AM MST 5:33 PM MST
Civil Twilight 7:11 AM MST 6:01 PM MST
Nautical Twilight 6:39 AM MST 6:33 PM MST
Astronomical Twilight 6:08 AM MST 7:04 PM MST
Moon 6:22 AM MST (1/10) 4:45 PM MST (1/10)
Length of Visible Light 10h 50m
Length of Day
9h 54m
Waning Crescent, 2% of the Moon is Illuminated
Jan 10
Waning Crescent
Jan 11
New
Jan 18
First Quarter
Jan 26
Full
Feb 3
Last Quarter

Hourly Weather History & Observations

Time (MST) Temp. Windchill Dew Point Humidity Pressure Visibility Wind Dir Wind Speed Gust Speed Precip Events Conditions
12:54 AM 21.0 °F - 16.0 °F 81% 30.01 in 10.0 mi Calm Calm - N/A   Clear
1:54 AM 23.0 °F 17.0 °F 17.1 °F 78% 29.98 in 10.0 mi ENE 4.6 mph - N/A   Clear
2:54 AM 21.0 °F - 16.0 °F 81% 29.97 in 10.0 mi Calm Calm - N/A   Clear
3:54 AM 26.1 °F 21.9 °F 14.0 °F 60% 29.92 in 10.0 mi South 3.5 mph - N/A   Clear
4:54 AM 28.0 °F 22.8 °F 14.0 °F 56% 29.87 in 10.0 mi South 4.6 mph - N/A   Clear
5:54 AM 35.1 °F 26.9 °F 15.1 °F 44% 29.86 in 10.0 mi South 11.5 mph 20.7 mph N/A   Clear
6:54 AM 35.1 °F 27.4 °F 15.1 °F 44% 29.88 in 10.0 mi South 10.4 mph - N/A   Clear
8:54 AM 35.1 °F 25.2 °F 17.1 °F 48% 29.91 in 10.0 mi SSW 16.1 mph 24.2 mph N/A   Partly Cloudy
9:54 AM 35.1 °F 25.5 °F 17.1 °F 48% 29.89 in 10.0 mi South 15.0 mph - N/A   Mostly Cloudy
10:54 AM 37.0 °F 29.8 °F 16.0 °F 42% 29.85 in 10.0 mi South 10.4 mph - N/A   Overcast
11:54 AM 39.0 °F 31.4 °F 19.0 °F 45% 29.78 in 10.0 mi SSW 12.7 mph 24.2 mph N/A   Overcast
12:54 PM 39.0 °F 29.0 °F 19.9 °F 46% 29.75 in 10.0 mi SSW 20.7 mph 31.1 mph N/A   Partly Cloudy
1:54 PM 39.0 °F 28.5 °F 19.9 °F 46% 29.72 in 10.0 mi SSW 23.0 mph 34.5 mph N/A   Clear
2:54 PM 37.9 °F 26.8 °F 21.0 °F 51% 29.70 in 10.0 mi SSW 24.2 mph 36.8 mph N/A   Clear
3:54 PM 37.0 °F 25.4 °F 19.9 °F 50% 29.67 in 10.0 mi SSW 25.3 mph 35.7 mph N/A   Clear
4:54 PM 34.0 °F 21.0 °F 18.0 °F 52% 29.67 in 10.0 mi SSW 26.5 mph 34.5 mph N/A   Clear
5:54 PM 32.0 °F 20.1 °F 19.0 °F 59% 29.64 in 10.0 mi SSW 19.6 mph 29.9 mph N/A   Overcast
6:54 PM 30.9 °F 20.2 °F 19.9 °F 64% 29.60 in 10.0 mi SSW 15.0 mph 25.3 mph N/A   Overcast
7:54 PM 30.0 °F 17.5 °F 19.9 °F 66% 29.60 in 9.0 mi SSW 19.6 mph 29.9 mph 0.00 in Snow Light Snow
7:58 PM 30.2 °F 15.4 °F 21.2 °F 69% 29.64 in 2.5 mi SSW 28.8 mph 35.7 mph 0.00 in Snow Light Snow
8:00 PM 28.4 °F 13.8 °F 21.2 °F 74% 29.64 in 1.0 mi SSW 25.3 mph 38.0 mph 0.00 in Snow Light Snow
8:04 PM 28.4 °F 14.1 °F 24.8 °F 86% 29.64 in 0.2 mi SW 24.2 mph 38.0 mph 0.00 in Fog , Snow Heavy Snow
8:12 PM 28.4 °F 15.4 °F 26.6 °F 93% 29.63 in 0.5 mi SW 19.6 mph 32.2 mph 0.00 in Fog , Snow Light Snow
8:25 PM 26.6 °F 14.3 °F 24.8 °F 93% 29.64 in 0.2 mi SW 16.1 mph 32.2 mph 0.00 in Fog , Snow Snow
8:51 PM 24.8 °F 10.3 °F 21.2 °F 86% 29.65 in 0.5 mi WSW 20.7 mph 31.1 mph 0.00 in Fog , Snow Snow
8:54 PM 25.0 °F 12.6 °F 21.9 °F 88% 29.64 in 0.8 mi WSW 15.0 mph 31.1 mph 0.00 in Snow Light Snow
9:01 PM 24.8 °F 11.9 °F 21.2 °F 86% 29.64 in 1.2 mi WSW 16.1 mph 26.5 mph 0.00 in Snow Light Snow
9:14 PM 24.8 °F 12.4 °F 21.2 °F 86% 29.66 in 1.2 mi West 15.0 mph 23.0 mph 0.00 in Snow Light Snow
9:18 PM 24.8 °F 12.9 °F 19.4 °F 80% 29.65 in 2.0 mi West 13.8 mph 23.0 mph 0.00 in Snow Light Snow
9:26 PM 23.0 °F 10.6 °F 19.4 °F 86% 29.66 in 4.0 mi West 13.8 mph 25.3 mph 0.00 in Snow Light Snow
9:54 PM 21.9 °F 11.0 °F 18.0 °F 85% 29.66 in 9.0 mi WSW 10.4 mph 20.7 mph 0.00 in   Overcast
10:41 PM 21.2 °F 9.5 °F 17.6 °F 86% 29.68 in 1.8 mi WSW 11.5 mph 18.4 mph 0.00 in Snow Light Snow
10:47 PM 21.2 °F 11.7 °F 17.6 °F 86% 29.68 in 1.0 mi SW 8.1 mph - 0.00 in Snow Light Snow
10:54 PM 21.0 °F 11.4 °F 17.1 °F 85% 29.68 in 1.0 mi SW 8.1 mph - 0.00 in Snow Light Snow
11:08 PM 19.4 °F 7.2 °F 17.6 °F 93% 29.68 in 1.5 mi SW 11.5 mph - 0.00 in Snow Light Snow
11:24 PM 19.4 °F 8.6 °F 15.8 °F 86% 29.68 in 3.0 mi SW 9.2 mph - 0.00 in Snow Light Snow
11:54 PM 19.9 °F 7.3 °F 16.0 °F 85% 29.66 in 1.2 mi SW 12.7 mph - 0.00 in Snow Light Snow